Regional Weather Roundup
Issued by NWS Sterling, VA

Home | Current Version | Previous Version | Graphics & Text | Print | Product List | Glossary On
Versions: 1 2 3 4 5 6 7 8 9 10 11 12 13 14 15 16 17 18 19 20 21 22 23 24 25 26 27 28 29 30 31 32 33 34 35 36 37 38 39 40 41 42 43 44 45 46 47 48 49 50
000
ASUS41 KLWX 031410
RWRLWX

REGIONAL WEATHER ROUNDUP
NATIONAL WEATHER SERVICE BALTIMORE MD/WASHINGTON DC
1000 AM EDT TUE MAY 03 2016

Note: "FAIR" indicates few or no clouds below 12,000 feet
with no significant weather and/or obstructions to visibility.
 TC=TEMPERATURE CELSIUS

 * =Non NWS site. Station does not report precipitation (e.g. rain,
    snow, etc.), thunder, or fog.

DCZ001-MDZ009-015-VAZ040>042-051-053>054-031500-
WASHINGTON METRO

CITY           SKY/WX    TMP DP  RH WIND       PRES   REMARKS
WASHINGTON NAT CLOUDY    67  60  78 W7        29.80S
DULLES         CLOUDY    64  59  83 N7        29.80S
ANDREWS AFB    CLOUDY    65  63  95 NW10      29.78S
FT BELVOIR     FAIR      66  62  86 W6        29.79S
QUANTICO       CLOUDY    66  63  88 N5        29.81R
COLLEGE PARK*  CLOUDY    63  61  94 CALM      29.79R
LEESBURG*      CLOUDY    63  63 100 NW9       29.83R
MANASSAS*      CLOUDY    66  64  94 CALM      29.80S FOG
GAITHERSBURG*  CLOUDY    63  59  88 NW5       29.84R

$$

MDZ006>007-011-014-031500-
BALTIMORE METRO

CITY           SKY/WX    TMP DP  RH WIND       PRES   REMARKS
BWI AIRPORT    FOG       61  59  93 CALM      29.79R VSB 1
MD SCIENCE CTR   N/A     61  59  93 MISG      29.81R
MARTIN STATE   CLOUDY    61  61 100 CALM      29.81R FOG
ANNAPOLIS      CLOUDY    61  59  93 CALM      29.79S
FORT MEADE*    CLOUDY    61  59  94 CALM      29.82R

$$

MDZ012-015-019>023-031500-
MARYLAND EASTERN SHORE

CITY           SKY/WX    TMP DP  RH WIND       PRES   REMARKS
OCEAN CITY     CLOUDY    62  61  96 S7        29.79S
SALISBURY      CLOUDY    66  64  93 W9        29.79R
CAMBRIDGE*     CLOUDY    63  63 100 W5        29.79R
EASTON*        CLOUDY   N/A N/A N/A NW5       29.83R FOG

$$

MDZ017>025-031500-
SOUTHERN MARYLAND

CITY           SKY/WX    TMP DP  RH WIND       PRES   REMARKS
PATUXENT RIVER CLOUDY    66  62  87 NW6       29.79R
ST INIGOES     LGT RAIN  66  66 100 W7        29.79R
LEONARDTOWN*   CLOUDY    64  61  88 CALM      29.81R

$$

MDZ003>005-031500-
NORTH CENTRAL MARYLAND

CITY           SKY/WX    TMP DP  RH WIND       PRES   REMARKS
FREDERICK*     CLOUDY    59  59 100 NE10      29.83S
HAGERSTOWN APT CLOUDY    59  53  80 N12       29.82R
WESTMINSTER*   CLOUDY    55  34  44 N7        29.81S HAZE

$$

MDZ501>502-031500-
WESTERN MARYLAND

CITY           SKY/WX    TMP DP  RH WIND       PRES   REMARKS
OAKLAND*       CLOUDY    52  45  76 W5        29.85F
CUMBERLAND*    CLOUDY    63  55  77 CALM      29.86F

$$

VAZ025>031-031500-
SHENANDOAH VALLEY

CITY           SKY/WX    TMP DP  RH WIND       PRES   REMARKS
WINCHESTER*    CLOUDY    61  57  88 CALM      29.82S
FRONT ROYAL*   CLOUDY    61  59  94 CALM      29.81S
LURAY*         CLOUDY    61  61 100 CALM      29.82S
NEW MARKET*    CLOUDY    61  59  93 CALM      29.81S
STAUNTON*        N/A    N/A N/A N/A CALM      29.84
WAYNESBORO*    FAIR      63  58  84 W3        29.82F

$$

WVZ021-048>050-054>055-031500-
EASTERN WEST VIRGINIA PANHANDLE

CITY           SKY/WX    TMP DP  RH WIND       PRES   REMARKS
MARTINSBURG    CLOUDY    60  56  86 N7        29.82R
PETERSBURG*    PTSUNNY   64  59  85 CALM      29.84S

$$

VAZ036>039-050-031500-
CENTRAL FOOTHILLS

CITY           SKY/WX    TMP DP  RH WIND       PRES   REMARKS
CHARLOTTESVILL FAIR      65  61  87 CALM      29.79F
CULPEPER*      FAIR      67  63  85 CALM      29.81S
ORANGE*        CLOUDY    64  64 100 CALM      29.81F
GORDONSVILLE*  CLOUDY    64  62  95 CALM      29.80S
WARRENTON*     FAIR      68  59  72 CALM      29.80S

$$

VAZ055>057-031500-
NORTH AND CENTRAL PIEDMONT

CITY           SKY/WX    TMP DP  RH WIND       PRES   REMARKS
FREDERICKSBRG* PTSUNNY   66  66 100 CALM      29.80S
STAFFORD*      CLOUDY    64  61  90 W3        29.84S

$$

NCZ024-NYZ072-PAZ021-071-VAZ022-071-031500-
OTHER REGIONAL OBSERVATIONS

CITY           SKY/WX    TMP DP  RH WIND       PRES   REMARKS
NEW YORK CITY  LGT RAIN  52  49  89 E8        29.88F FOG
PHILADELPHIA   DRIZZLE   57  52  83 E9        29.82R FOG
PITTSBURGH     CLOUDY    49  42  77 NW9       29.87S
ROANOKE        PTSUNNY   64  58  80 W6        29.85F
RICHMOND       LGT RAIN  65  63  93 VRB5      29.81S
RALEIGH        LGT RAIN  66  65  96 SW6       29.85S

$$

ANZ530>537-031500-
MARINE OBSERVATIONS

STATION/POSITION TIME  TEMP    WIND        PRES
                       AIR SEA DIR/SP/G
                 (UTC) (F)     (DEG/KT/KT) (MB)
THOMAS PT LIGHT  1400   58 58   30/  5/  5 1010.2R
BALT KEY BRIDGE  1300   59      20/  3/  3 1008.6F
COVE POINT       1300   59     350/  7/  9 1009.0R
LEWISETTA        1300   66 62  270/  7/  9 1008.4R
SOLOMONS ISLAND  1300   65 61  280/  4/  6   N/A
PINEY POINT      1300          330/  4/  4   N/A

$$




USA.gov is the U.S. government's official web portal to all federal, state and local government web resources and services.